Regional Weather Roundup
Issued by NWS Glasgow, MT

Current Version | Previous Version | Text Only | Print | Product List | Glossary On
Versions: 1 2 3 4 5 6 7 8 9 10 11 12 13 14 15 16 17 18 19 20 21 22 23 24 25 26 27 28 29 30 31 32 33 34 35 36 37 38 39 40 41 42 43 44 45 46 47 48 49 50
000
ASUS45 KGGW 051015
RWRGGW
HOURLY REGIONAL WEATHER ROUNDUP FOR NORTHEAST MONTANA
NATIONAL WEATHER SERVICE GLASGOW MONTANA
400 AM MDT WED AUG 05 2015

NOTE: "FAIR" INDICATES FEW OR NO CLOUDS BELOW 12,000 FEET WITH NO
SIGNIFICANT WEATHER AND/OR OBSTRUCTIONS TO VISISBILITY.

NORTHEAST MONTANA


CITY           SKY/WX    TMP DP  RH WIND       PRES   REMARKS
GLASGOW        PTCLDY    62  59  90 E7        29.89S
PLENTYWOOD       N/A     63  61  93 NE5         N/A
WOLF POINT     PTCLDY    62  61  96 NW3       29.88S FOG
JORDAN           N/A     57  55  93 CALM      29.90F
WINNETT          N/A     50  48  93 NW2         N/A
SIDNEY         CLOUDY    64  61  88 CALM      29.88S
GLENDIVE         N/A    N/A N/A N/A MISG        N/A
MALTA            N/A     60  56  86 CALM        N/A
SCOBEY           N/A     62  57  83 CALM      29.88F

FORT PECK REPORTS


CITY           SKY/WX    TMP DP  RH WIND       PRES   REMARKS
FORT PECK        N/A     66  65  96 E6G15       N/A
THE PINES        N/A     63  60  90 E3          N/A

SOUTHEAST MONTANA


CITY           SKY/WX    TMP DP  RH WIND       PRES   REMARKS
BILLINGS       PTCLDY    59  54  83 SW9       29.98S
MILES CITY     CLEAR     59  58  96 SE7       29.92F
BAKER          PTCLDY    62  58  86 S12       29.96F
LIVINGSTON     PTCLDY    61  48  62 S6        30.02F

CENTRAL MONTANA


CITY           SKY/WX    TMP DP  RH WIND       PRES   REMARKS
HAVRE          CLEAR     57  50  77 S7        29.88S
LEWISTOWN      CLEAR     53  46  77 SE7       29.98S
GREAT FALLS    PTCLDY    55  49  80 NW13      29.94R
CUT BANK       CLOUDY    53  50  89 NW8       29.96F
HELENA         CLEAR     58  43  57 W6        29.98F
BUTTE          PTCLDY    49  45  86 S6        30.07F
BOZEMAN        CLEAR     52  49  89 N6        30.01F

WESTERN MONTANA


CITY           SKY/WX    TMP DP  RH WIND       PRES   REMARKS
MISSOULA       PTCLDY    62  46  55 E5        29.95R
KALISPELL      NOT AVBL

NORTH DAKOTA


CITY           SKY/WX    TMP DP  RH WIND       PRES   REMARKS
WILLISTON      CLOUDY    67  62  84 E5        29.88F
DICKINSON      MOCLDY    62  59  90 SE8       29.94R
MINOT          CLOUDY    62  56  80 SE6       29.92F
BISMARCK       CLOUDY    62  57  83 NE5       29.98S

SOUTHERN SASKATCHEWAN


CITY           SKY/WX    TMP DP  RH WIND       PRES   REMARKS
REGINA         LGT RAIN  61  57  88 SE9       29.90F
MOOSE JAW      LGT RAIN  64  63  94 SE7       29.87
ESTEVAN        CLOUDY    63  57  82 E3        29.90F
SWIFT CURRENT  CLEAR     61  57  88 CALM      29.87S




USA.gov is the U.S. government's official web portal to all federal, state and local government web resources and services.